User: anonymous   Login
Location: Unspecified
(0.0000°N, 0.0000°E)
Time: 11:02:15
(UTC+00:00)
Language:

NOAA 9 - Orbit

View from above orbital plane
View from above orbital plane
View from above satellite
View from above satellite

Ground track
Ground track

The orbit data is extracted from the following two-line orbital elements,

1 15427U 84123A   17268.88458363 +.00000033 +00000-0 +38861-4 0  9992
2 15427 098.8107 211.7147 0015578 035.9326 031.6806 14.16011009692397
Epoch (UTC): 25 September 2017 21:13:48
Eccentricity: 0.0015578
inclination: 98.8107°
perigee height: 827 km
apogee height: 850 km
right ascension of ascending node: 211.7147°
argument of perigee: 35.9326°
revolutions per day: 14.16011009
mean anomaly at epoch: 31.6806°
orbit number at epoch: 69239

The dashed part of the orbit path shows where the satellite is in the earth's shadow,  

DLR